owner,sensor,date,latitude,longitude,vertical_datum,sea_water_temperature,qcFlag 
DISL,ioos:station:DISL:KATA:1,2019-02-01T00:30:00Z,30.2583,-88.2131,0.0,15.59,11111222 
DISL,ioos:station:DISL:KATA:1,2019-02-01T01:30:00Z,30.2583,-88.2131,0.0,15.57,11111222 
DISL,ioos:station:DISL:KATA:1,2019-02-01T02:30:00Z,30.2583,-88.2131,0.0,15.54,11111222 
DISL,ioos:station:DISL:KATA:1,2019-02-01T03:30:00Z,30.2583,-88.2131,0.0,15.52,11111222 
DISL,ioos:station:DISL:KATA:1,2019-02-01T04:30:00Z,30.2583,-88.2131,0.0,15.52,11111222 
DISL,ioos:station:DISL:KATA:1,2019-02-01T05:30:00Z,30.2583,-88.2131,0.0,15.53,11111222 
DISL,ioos:station:DISL:KATA:1,2019-02-01T06:30:00Z,30.2583,-88.2131,0.0,15.52,11111222 
DISL,ioos:station:DISL:KATA:1,2019-02-01T07:30:00Z,30.2583,-88.2131,0.0,15.53,11111222 
DISL,ioos:station:DISL:KATA:1,2019-02-01T08:30:00Z,30.2583,-88.2131,0.0,15.53,11111222 
DISL,ioos:station:DISL:KATA:1,2019-02-01T09:30:00Z,30.2583,-88.2131,0.0,15.52,11111222 
DISL,ioos:station:DISL:KATA:1,2019-02-01T10:30:00Z,30.2583,-88.2131,0.0,15.5,11111222 
DISL,ioos:station:DISL:KATA:1,2019-02-01T11:30:00Z,30.2583,-88.2131,0.0,15.46,11111222 
DISL,ioos:station:DISL:KATA:1,2019-02-01T12:30:00Z,30.2583,-88.2131,0.0,15.45,11111222 
DISL,ioos:station:DISL:KATA:1,2019-02-01T13:30:00Z,30.2583,-88.2131,0.0,15.45,11111222 
DISL,ioos:station:DISL:KATA:1,2019-02-01T14:30:00Z,30.2583,-88.2131,0.0,15.42,11111222 
DISL,ioos:station:DISL:KATA:1,2019-02-01T15:30:00Z,30.2583,-88.2131,0.0,15.43,11111222 
DISL,ioos:station:DISL:KATA:1,2019-02-01T16:30:00Z,30.2583,-88.2131,0.0,15.39,11111222 
DISL,ioos:station:DISL:KATA:1,2019-02-01T17:30:00Z,30.2583,-88.2131,0.0,15.33,11111222 
DISL,ioos:station:DISL:KATA:1,2019-02-01T18:30:00Z,30.2583,-88.2131,0.0,15.25,11111222 
DISL,ioos:station:DISL:KATA:1,2019-02-01T19:30:00Z,30.2583,-88.2131,0.0,15.13,11111222 
DISL,ioos:station:DISL:KATA:1,2019-02-01T20:30:00Z,30.2583,-88.2131,0.0,15.01,11111222 
DISL,ioos:station:DISL:KATA:1,2019-02-01T21:30:00Z,30.2583,-88.2131,0.0,14.86,11111222 
DISL,ioos:station:DISL:KATA:1,2019-02-01T22:30:00Z,30.2583,-88.2131,0.0,14.74,11111222 
DISL,ioos:station:DISL:KATA:1,2019-02-01T23:30:00Z,30.2583,-88.2131,0.0,14.65,11111222 
DISL,ioos:station:DISL:KATA:1,2019-02-02T00:30:00Z,30.2583,-88.2131,0.0,14.62,11111222 
DISL,ioos:station:DISL:KATA:1,2019-02-02T01:30:00Z,30.2583,-88.2131,0.0,14.57,11111222 
DISL,ioos:station:DISL:KATA:1,2019-02-02T02:30:00Z,30.2583,-88.2131,0.0,14.58,11111222 
DISL,ioos:station:DISL:KATA:1,2019-02-02T03:30:00Z,30.2583,-88.2131,0.0,14.58,11111222 
DISL,ioos:station:DISL:KATA:1,2019-02-02T04:30:00Z,30.2583,-88.2131,0.0,14.56,11111222 
DISL,ioos:station:DISL:KATA:1,2019-02-02T05:30:00Z,30.2583,-88.2131,0.0,14.58,11111222 
DISL,ioos:station:DISL:KATA:1,2019-02-02T06:30:00Z,30.2583,-88.2131,0.0,14.61,11111222 
DISL,ioos:station:DISL:KATA:1,2019-02-02T07:30:00Z,30.2583,-88.2131,0.0,14.66,11111222 
DISL,ioos:station:DISL:KATA:1,2019-02-02T08:30:00Z,30.2583,-88.2131,0.0,14.71,11111222 
DISL,ioos:station:DISL:KATA:1,2019-02-02T09:30:00Z,30.2583,-88.2131,0.0,14.75,11111222 
DISL,ioos:station:DISL:KATA:1,2019-02-02T10:30:00Z,30.2583,-88.2131,0.0,14.84,11111222 
DISL,ioos:station:DISL:KATA:1,2019-02-02T11:30:00Z,30.2583,-88.2131,0.0,14.87,11111222 
DISL,ioos:station:DISL:KATA:1,2019-02-02T12:30:00Z,30.2583,-88.2131,0.0,14.85,11111222 
DISL,ioos:station:DISL:KATA:1,2019-02-02T13:30:00Z,30.2583,-88.2131,0.0,14.77,11111222 
DISL,ioos:station:DISL:KATA:1,2019-02-02T14:30:00Z,30.2583,-88.2131,0.0,14.68,11111222 
DISL,ioos:station:DISL:KATA:1,2019-02-02T15:30:00Z,30.2583,-88.2131,0.0,14.65,11111222 
DISL,ioos:station:DISL:KATA:1,2019-02-02T16:30:00Z,30.2583,-88.2131,0.0,14.56,11111222 
DISL,ioos:station:DISL:KATA:1,2019-02-02T17:30:00Z,30.2583,-88.2131,0.0,14.46,11111222 
DISL,ioos:station:DISL:KATA:1,2019-02-02T18:30:00Z,30.2583,-88.2131,0.0,14.35,11111222 
DISL,ioos:station:DISL:KATA:1,2019-02-02T19:30:00Z,30.2583,-88.2131,0.0,14.29,11111222 
DISL,ioos:station:DISL:KATA:1,2019-02-02T20:30:00Z,30.2583,-88.2131,0.0,14.24,11111222 
DISL,ioos:station:DISL:KATA:1,2019-02-02T21:30:00Z,30.2583,-88.2131,0.0,14.19,11111222 
DISL,ioos:station:DISL:KATA:1,2019-02-02T22:30:00Z,30.2583,-88.2131,0.0,14.13,11111222 
DISL,ioos:station:DISL:KATA:1,2019-02-02T23:30:00Z,30.2583,-88.2131,0.0,14.09,11111222 
DISL,ioos:station:DISL:KATA:1,2019-02-03T00:30:00Z,30.2583,-88.2131,0.0,14.05,11111222 
DISL,ioos:station:DISL:KATA:1,2019-02-03T01:30:00Z,30.2583,-88.2131,0.0,14.02,11111222 
DISL,ioos:station:DISL:KATA:1,2019-02-03T02:30:00Z,30.2583,-88.2131,0.0,14.02,11111222 
DISL,ioos:station:DISL:KATA:1,2019-02-03T03:30:00Z,30.2583,-88.2131,0.0,14.05,11111222 
DISL,ioos:station:DISL:KATA:1,2019-02-03T04:30:00Z,30.2583,-88.2131,0.0,14.04,11111222 
DISL,ioos:station:DISL:KATA:1,2019-02-03T05:30:00Z,30.2583,-88.2131,0.0,14.08,11111222 
DISL,ioos:station:DISL:KATA:1,2019-02-03T06:30:00Z,30.2583,-88.2131,0.0,14.14,11111222 
DISL,ioos:station:DISL:KATA:1,2019-02-03T07:30:00Z,30.2583,-88.2131,0.0,14.14,11111222 
DISL,ioos:station:DISL:KATA:1,2019-02-03T08:30:00Z,30.2583,-88.2131,0.0,14.14,11111222 
DISL,ioos:station:DISL:KATA:1,2019-02-03T09:30:00Z,30.2583,-88.2131,0.0,14.13,11111222 
DISL,ioos:station:DISL:KATA:1,2019-02-03T10:30:00Z,30.2583,-88.2131,0.0,14.12,11111222 
DISL,ioos:station:DISL:KATA:1,2019-02-03T11:30:00Z,30.2583,-88.2131,0.0,14.14,11111222 
DISL,ioos:station:DISL:KATA:1,2019-02-03T12:30:00Z,30.2583,-88.2131,0.0,14.16,11111222 
DISL,ioos:station:DISL:KATA:1,2019-02-03T13:30:00Z,30.2583,-88.2131,0.0,14.17,11111222 
DISL,ioos:station:DISL:KATA:1,2019-02-03T14:30:00Z,30.2583,-88.2131,0.0,14.17,11111222 
DISL,ioos:station:DISL:KATA:1,2019-02-03T15:30:00Z,30.2583,-88.2131,0.0,14.15,11111222 
DISL,ioos:station:DISL:KATA:1,2019-02-03T16:30:00Z,30.2583,-88.2131,0.0,14.14,11111222 
DISL,ioos:station:DISL:KATA:1,2019-02-03T17:30:00Z,30.2583,-88.2131,0.0,14.13,11111222 
DISL,ioos:station:DISL:KATA:1,2019-02-03T18:30:00Z,30.2583,-88.2131,0.0,14.12,11111222 
DISL,ioos:station:DISL:KATA:1,2019-02-03T19:30:00Z,30.2583,-88.2131,0.0,14.11,11111222 
DISL,ioos:station:DISL:KATA:1,2019-02-03T20:30:00Z,30.2583,-88.2131,0.0,14.11,11111222 
DISL,ioos:station:DISL:KATA:1,2019-02-03T21:30:00Z,30.2583,-88.2131,0.0,14.12,11111222 
DISL,ioos:station:DISL:KATA:1,2019-02-03T22:30:00Z,30.2583,-88.2131,0.0,14.15,11111222 
DISL,ioos:station:DISL:KATA:1,2019-02-03T23:30:00Z,30.2583,-88.2131,0.0,14.17,11111222 
DISL,ioos:station:DISL:KATA:1,2019-02-04T00:30:00Z,30.2583,-88.2131,0.0,14.18,11111222 
DISL,ioos:station:DISL:KATA:1,2019-02-04T01:30:00Z,30.2583,-88.2131,0.0,14.18,11111222 
DISL,ioos:station:DISL:KATA:1,2019-02-04T02:30:00Z,30.2583,-88.2131,0.0,14.18,11111222 
DISL,ioos:station:DISL:KATA:1,2019-02-04T03:30:00Z,30.2583,-88.2131,0.0,14.16,11111222 
DISL,ioos:station:DISL:KATA:1,2019-02-04T04:30:00Z,30.2583,-88.2131,0.0,14.18,11111222 
DISL,ioos:station:DISL:KATA:1,2019-02-04T05:30:00Z,30.2583,-88.2131,0.0,14.18,11111222 
DISL,ioos:station:DISL:KATA:1,2019-02-04T06:30:00Z,30.2583,-88.2131,0.0,14.18,11111222 
DISL,ioos:station:DISL:KATA:1,2019-02-04T07:30:00Z,30.2583,-88.2131,0.0,14.17,11111222 
DISL,ioos:station:DISL:KATA:1,2019-02-04T08:30:00Z,30.2583,-88.2131,0.0,14.14,11111222 
DISL,ioos:station:DISL:KATA:1,2019-02-04T09:30:00Z,30.2583,-88.2131,0.0,14.12,11111222 
DISL,ioos:station:DISL:KATA:1,2019-02-04T10:30:00Z,30.2583,-88.2131,0.0,14.11,11111222 
DISL,ioos:station:DISL:KATA:1,2019-02-04T11:30:00Z,30.2583,-88.2131,0.0,14.09,11111222 
DISL,ioos:station:DISL:KATA:1,2019-02-04T12:30:00Z,30.2583,-88.2131,0.0,14.1,11111222 
DISL,ioos:station:DISL:KATA:1,2019-02-04T13:30:00Z,30.2583,-88.2131,0.0,14.11,11111222 
DISL,ioos:station:DISL:KATA:1,2019-02-04T14:30:00Z,30.2583,-88.2131,0.0,14.13,11111222 
DISL,ioos:station:DISL:KATA:1,2019-02-04T15:30:00Z,30.2583,-88.2131,0.0,14.13,11111222 
DISL,ioos:station:DISL:KATA:1,2019-02-04T16:30:00Z,30.2583,-88.2131,0.0,14.15,11111222 
DISL,ioos:station:DISL:KATA:1,2019-02-04T17:30:00Z,30.2583,-88.2131,0.0,14.17,11111222 
DISL,ioos:station:DISL:KATA:1,2019-02-04T18:30:00Z,30.2583,-88.2131,0.0,14.18,11111222 
DISL,ioos:station:DISL:KATA:1,2019-02-04T19:30:00Z,30.2583,-88.2131,0.0,14.17,11111222 
DISL,ioos:station:DISL:KATA:1,2019-02-04T20:30:00Z,30.2583,-88.2131,0.0,14.17,11111222 
DISL,ioos:station:DISL:KATA:1,2019-02-04T21:30:00Z,30.2583,-88.2131,0.0,14.17,11111222 
DISL,ioos:station:DISL:KATA:1,2019-02-04T22:30:00Z,30.2583,-88.2131,0.0,14.16,11111222 
DISL,ioos:station:DISL:KATA:1,2019-02-04T23:30:00Z,30.2583,-88.2131,0.0,14.16,11111222 
DISL,ioos:station:DISL:KATA:1,2019-02-05T00:30:00Z,30.2583,-88.2131,0.0,14.16,11111222 
DISL,ioos:station:DISL:KATA:1,2019-02-05T01:30:00Z,30.2583,-88.2131,0.0,14.16,11111222 
DISL,ioos:station:DISL:KATA:1,2019-02-05T02:30:00Z,30.2583,-88.2131,0.0,14.17,11111222 
DISL,ioos:station:DISL:KATA:1,2019-02-05T03:30:00Z,30.2583,-88.2131,0.0,14.17,11111222 
DISL,ioos:station:DISL:KATA:1,2019-02-05T04:30:00Z,30.2583,-88.2131,0.0,14.18,11111222 
DISL,ioos:station:DISL:KATA:1,2019-02-05T05:30:00Z,30.2583,-88.2131,0.0,14.17,11111222 
DISL,ioos:station:DISL:KATA:1,2019-02-05T06:30:00Z,30.2583,-88.2131,0.0,14.18,11111222 
DISL,ioos:station:DISL:KATA:1,2019-02-05T07:30:00Z,30.2583,-88.2131,0.0,14.17,11111222 
DISL,ioos:station:DISL:KATA:1,2019-02-05T08:30:00Z,30.2583,-88.2131,0.0,14.16,11111222 
DISL,ioos:station:DISL:KATA:1,2019-02-05T09:30:00Z,30.2583,-88.2131,0.0,14.16,11111222 
DISL,ioos:station:DISL:KATA:1,2019-02-05T10:30:00Z,30.2583,-88.2131,0.0,14.16,11111222 
DISL,ioos:station:DISL:KATA:1,2019-02-05T11:30:00Z,30.2583,-88.2131,0.0,14.17,11111222 
DISL,ioos:station:DISL:KATA:1,2019-02-05T12:30:00Z,30.2583,-88.2131,0.0,14.17,11111222 
DISL,ioos:station:DISL:KATA:1,2019-02-05T13:30:00Z,30.2583,-88.2131,0.0,14.18,11111222 
DISL,ioos:station:DISL:KATA:1,2019-02-05T14:30:00Z,30.2583,-88.2131,0.0,14.18,11111222 
DISL,ioos:station:DISL:KATA:1,2019-02-05T15:30:00Z,30.2583,-88.2131,0.0,14.19,11111222 
DISL,ioos:station:DISL:KATA:1,2019-02-05T16:30:00Z,30.2583,-88.2131,0.0,14.19,11111222 
DISL,ioos:station:DISL:KATA:1,2019-02-05T17:30:00Z,30.2583,-88.2131,0.0,14.19,11111222 
DISL,ioos:station:DISL:KATA:1,2019-02-05T18:30:00Z,30.2583,-88.2131,0.0,14.19,11111222 
DISL,ioos:station:DISL:KATA:1,2019-02-05T19:30:00Z,30.2583,-88.2131,0.0,14.2,11111222 
DISL,ioos:station:DISL:KATA:1,2019-02-05T20:30:00Z,30.2583,-88.2131,0.0,14.21,11111222 
DISL,ioos:station:DISL:KATA:1,2019-02-05T21:30:00Z,30.2583,-88.2131,0.0,14.24,11111222 
DISL,ioos:station:DISL:KATA:1,2019-02-05T22:30:00Z,30.2583,-88.2131,0.0,14.3,11111222 
DISL,ioos:station:DISL:KATA:1,2019-02-05T23:30:00Z,30.2583,-88.2131,0.0,14.42,11111222 
DISL,ioos:station:DISL:KATA:1,2019-02-06T00:30:00Z,30.2583,-88.2131,0.0,14.48,11111222 
DISL,ioos:station:DISL:KATA:1,2019-02-06T01:30:00Z,30.2583,-88.2131,0.0,14.52,11111222 
DISL,ioos:station:DISL:KATA:1,2019-02-06T02:30:00Z,30.2583,-88.2131,0.0,14.6,11111222 
DISL,ioos:station:DISL:KATA:1,2019-02-06T03:30:00Z,30.2583,-88.2131,0.0,14.62,11111222 
DISL,ioos:station:DISL:KATA:1,2019-02-06T04:30:00Z,30.2583,-88.2131,0.0,14.65,11111222 
DISL,ioos:station:DISL:KATA:1,2019-02-06T05:30:00Z,30.2583,-88.2131,0.0,14.66,11111222 
DISL,ioos:station:DISL:KATA:1,2019-02-06T06:30:00Z,30.2583,-88.2131,0.0,14.66,11111222 
DISL,ioos:station:DISL:KATA:1,2019-02-06T07:30:00Z,30.2583,-88.2131,0.0,14.65,11111222 
DISL,ioos:station:DISL:KATA:1,2019-02-06T08:30:00Z,30.2583,-88.2131,0.0,14.63,11111222 
DISL,ioos:station:DISL:KATA:1,2019-02-06T09:30:00Z,30.2583,-88.2131,0.0,14.59,11111222 
DISL,ioos:station:DISL:KATA:1,2019-02-06T10:30:00Z,30.2583,-88.2131,0.0,14.52,11111222 
DISL,ioos:station:DISL:KATA:1,2019-02-06T11:30:00Z,30.2583,-88.2131,0.0,14.5,11111222 
DISL,ioos:station:DISL:KATA:1,2019-02-06T12:30:00Z,30.2583,-88.2131,0.0,14.42,11111222 
DISL,ioos:station:DISL:KATA:1,2019-02-06T13:30:00Z,30.2583,-88.2131,0.0,14.39,11111222 
DISL,ioos:station:DISL:KATA:1,2019-02-06T14:30:00Z,30.2583,-88.2131,0.0,14.38,11111222 
DISL,ioos:station:DISL:KATA:1,2019-02-06T15:30:00Z,30.2583,-88.2131,0.0,14.39,11111222 
DISL,ioos:station:DISL:KATA:1,2019-02-06T16:30:00Z,30.2583,-88.2131,0.0,14.4,11111222 
DISL,ioos:station:DISL:KATA:1,2019-02-06T17:30:00Z,30.2583,-88.2131,0.0,14.43,11111222 
DISL,ioos:station:DISL:KATA:1,2019-02-06T18:30:00Z,30.2583,-88.2131,0.0,14.49,11111222 
DISL,ioos:station:DISL:KATA:1,2019-02-06T19:30:00Z,30.2583,-88.2131,0.0,14.54,11111222 
DISL,ioos:station:DISL:KATA:1,2019-02-06T20:30:00Z,30.2583,-88.2131,0.0,14.6,11111222 
DISL,ioos:station:DISL:KATA:1,2019-02-06T22:30:00Z,30.2583,-88.2131,0.0,14.66,11111222 
DISL,ioos:station:DISL:KATA:1,2019-02-06T23:30:00Z,30.2583,-88.2131,0.0,14.7,11111222 
DISL,ioos:station:DISL:KATA:1,2019-02-07T00:30:00Z,30.2583,-88.2131,0.0,14.71,11111222 
DISL,ioos:station:DISL:KATA:1,2019-02-07T01:30:00Z,30.2583,-88.2131,0.0,14.78,11111222 
DISL,ioos:station:DISL:KATA:1,2019-02-07T02:30:00Z,30.2583,-88.2131,0.0,14.9,11111222 
DISL,ioos:station:DISL:KATA:1,2019-02-07T03:30:00Z,30.2583,-88.2131,0.0,14.97,11111222 
DISL,ioos:station:DISL:KATA:1,2019-02-07T04:30:00Z,30.2583,-88.2131,0.0,15.1,11111222 
DISL,ioos:station:DISL:KATA:1,2019-02-07T05:30:00Z,30.2583,-88.2131,0.0,15.05,11111222 
DISL,ioos:station:DISL:KATA:1,2019-02-07T06:30:00Z,30.2583,-88.2131,0.0,15.0,11111222 
DISL,ioos:station:DISL:KATA:1,2019-02-07T07:30:00Z,30.2583,-88.2131,0.0,14.99,11111222 
DISL,ioos:station:DISL:KATA:1,2019-02-07T08:30:00Z,30.2583,-88.2131,0.0,15.0,11111222 
DISL,ioos:station:DISL:KATA:1,2019-02-07T09:30:00Z,30.2583,-88.2131,0.0,15.09,11111222 
DISL,ioos:station:DISL:KATA:1,2019-02-07T10:30:00Z,30.2583,-88.2131,0.0,15.22,11111222 
DISL,ioos:station:DISL:KATA:1,2019-02-07T11:30:00Z,30.2583,-88.2131,0.0,15.18,11111222 
DISL,ioos:station:DISL:KATA:1,2019-02-07T12:30:00Z,30.2583,-88.2131,0.0,15.26,11111222 
DISL,ioos:station:DISL:KATA:1,2019-02-07T13:30:00Z,30.2583,-88.2131,0.0,15.08,11111222 
DISL,ioos:station:DISL:KATA:1,2019-02-07T14:30:00Z,30.2583,-88.2131,0.0,14.87,11111222 
DISL,ioos:station:DISL:KATA:1,2019-02-07T15:30:00Z,30.2583,-88.2131,0.0,14.78,11111222 
DISL,ioos:station:DISL:KATA:1,2019-02-07T16:30:00Z,30.2583,-88.2131,0.0,14.76,11111222 
DISL,ioos:station:DISL:KATA:1,2019-02-07T17:30:00Z,30.2583,-88.2131,0.0,14.78,11111222 
DISL,ioos:station:DISL:KATA:1,2019-02-07T18:30:00Z,30.2583,-88.2131,0.0,14.79,11111222 
DISL,ioos:station:DISL:KATA:1,2019-02-07T19:30:00Z,30.2583,-88.2131,0.0,14.81,11111222 
DISL,ioos:station:DISL:KATA:1,2019-02-07T20:30:00Z,30.2583,-88.2131,0.0,14.83,11111222 
DISL,ioos:station:DISL:KATA:1,2019-02-07T21:30:00Z,30.2583,-88.2131,0.0,14.89,11111222 
DISL,ioos:station:DISL:KATA:1,2019-02-07T22:30:00Z,30.2583,-88.2131,0.0,14.91,11111222 
DISL,ioos:station:DISL:KATA:1,2019-02-07T23:30:00Z,30.2583,-88.2131,0.0,14.95,11111222 
DISL,ioos:station:DISL:KATA:1,2019-02-08T00:30:00Z,30.2583,-88.2131,0.0,15.16,11111222 
DISL,ioos:station:DISL:KATA:1,2019-02-08T01:30:00Z,30.2583,-88.2131,0.0,15.59,11111222 
DISL,ioos:station:DISL:KATA:1,2019-02-08T02:30:00Z,30.2583,-88.2131,0.0,15.38,11111222 
DISL,ioos:station:DISL:KATA:1,2019-02-08T03:30:00Z,30.2583,-88.2131,0.0,15.2,11111222 
DISL,ioos:station:DISL:KATA:1,2019-02-08T04:30:00Z,30.2583,-88.2131,0.0,15.05,11111222 
DISL,ioos:station:DISL:KATA:1,2019-02-08T05:30:00Z,30.2583,-88.2131,0.0,15.05,11111222 
DISL,ioos:station:DISL:KATA:1,2019-02-08T06:30:00Z,30.2583,-88.2131,0.0,15.02,11111222 
DISL,ioos:station:DISL:KATA:1,2019-02-08T07:30:00Z,30.2583,-88.2131,0.0,15.05,11111222 
DISL,ioos:station:DISL:KATA:1,2019-02-08T08:30:00Z,30.2583,-88.2131,0.0,15.69,11111222 
DISL,ioos:station:DISL:KATA:1,2019-02-08T09:30:00Z,30.2583,-88.2131,0.0,16.59,11111222 
DISL,ioos:station:DISL:KATA:1,2019-02-08T10:30:00Z,30.2583,-88.2131,0.0,16.47,11111222 
DISL,ioos:station:DISL:KATA:1,2019-02-08T11:30:00Z,30.2583,-88.2131,0.0,16.39,11111222 
DISL,ioos:station:DISL:KATA:1,2019-02-08T12:30:00Z,30.2583,-88.2131,0.0,16.22,11111222 
DISL,ioos:station:DISL:KATA:1,2019-02-08T13:30:00Z,30.2583,-88.2131,0.0,15.94,11111222 
DISL,ioos:station:DISL:KATA:1,2019-02-08T14:30:00Z,30.2583,-88.2131,0.0,15.72,11111222 
DISL,ioos:station:DISL:KATA:1,2019-02-08T15:30:00Z,30.2583,-88.2131,0.0,15.73,11111222 
DISL,ioos:station:DISL:KATA:1,2019-02-08T16:30:00Z,30.2583,-88.2131,0.0,15.67,11111222 
DISL,ioos:station:DISL:KATA:1,2019-02-08T17:30:00Z,30.2583,-88.2131,0.0,15.59,11111222 
DISL,ioos:station:DISL:KATA:1,2019-02-08T18:30:00Z,30.2583,-88.2131,0.0,15.38,11111222 
DISL,ioos:station:DISL:KATA:1,2019-02-08T19:30:00Z,30.2583,-88.2131,0.0,15.28,11111222 
DISL,ioos:station:DISL:KATA:1,2019-02-08T20:30:00Z,30.2583,-88.2131,0.0,15.34,11111222 
DISL,ioos:station:DISL:KATA:1,2019-02-08T21:30:00Z,30.2583,-88.2131,0.0,15.3,11111222 
DISL,ioos:station:DISL:KATA:1,2019-02-08T22:30:00Z,30.2583,-88.2131,0.0,15.26,11111222 
DISL,ioos:station:DISL:KATA:1,2019-02-08T23:30:00Z,30.2583,-88.2131,0.0,15.18,11111222 
DISL,ioos:station:DISL:KATA:1,2019-02-09T00:30:00Z,30.2583,-88.2131,0.0,15.1,11111222 
DISL,ioos:station:DISL:KATA:1,2019-02-09T01:30:00Z,30.2583,-88.2131,0.0,15.11,11111222 
DISL,ioos:station:DISL:KATA:1,2019-02-09T02:30:00Z,30.2583,-88.2131,0.0,14.86,11111222 
DISL,ioos:station:DISL:KATA:1,2019-02-09T03:30:00Z,30.2583,-88.2131,0.0,14.75,11111222 
DISL,ioos:station:DISL:KATA:1,2019-02-09T04:30:00Z,30.2583,-88.2131,0.0,14.41,11111222 
DISL,ioos:station:DISL:KATA:1,2019-02-09T05:30:00Z,30.2583,-88.2131,0.0,14.32,11111222 
DISL,ioos:station:DISL:KATA:1,2019-02-09T06:30:00Z,30.2583,-88.2131,0.0,14.05,11111222 
DISL,ioos:station:DISL:KATA:1,2019-02-09T07:30:00Z,30.2583,-88.2131,0.0,13.98,11111222 
DISL,ioos:station:DISL:KATA:1,2019-02-09T08:30:00Z,30.2583,-88.2131,0.0,13.86,11111222 
DISL,ioos:station:DISL:KATA:1,2019-02-09T09:30:00Z,30.2583,-88.2131,0.0,13.54,11111222 
DISL,ioos:station:DISL:KATA:1,2019-02-09T10:30:00Z,30.2583,-88.2131,0.0,13.4,11111222 
DISL,ioos:station:DISL:KATA:1,2019-02-09T11:30:00Z,30.2583,-88.2131,0.0,13.16,11111222 
DISL,ioos:station:DISL:KATA:1,2019-02-09T12:30:00Z,30.2583,-88.2131,0.0,12.97,11111222 
DISL,ioos:station:DISL:KATA:1,2019-02-09T13:30:00Z,30.2583,-88.2131,0.0,12.84,11111222 
DISL,ioos:station:DISL:KATA:1,2019-02-09T14:30:00Z,30.2583,-88.2131,0.0,12.77,11111222 
DISL,ioos:station:DISL:KATA:1,2019-02-09T15:30:00Z,30.2583,-88.2131,0.0,12.67,11111222 
DISL,ioos:station:DISL:KATA:1,2019-02-09T16:30:00Z,30.2583,-88.2131,0.0,12.5,11111222 
DISL,ioos:station:DISL:KATA:1,2019-02-09T17:30:00Z,30.2583,-88.2131,0.0,12.42,11111222 
DISL,ioos:station:DISL:KATA:1,2019-02-09T18:30:00Z,30.2583,-88.2131,0.0,12.43,11111222 
DISL,ioos:station:DISL:KATA:1,2019-02-09T19:30:00Z,30.2583,-88.2131,0.0,12.42,11111222 
DISL,ioos:station:DISL:KATA:1,2019-02-09T20:30:00Z,30.2583,-88.2131,0.0,12.5,11111222 
DISL,ioos:station:DISL:KATA:1,2019-02-09T21:30:00Z,30.2583,-88.2131,0.0,12.53,11111222 
DISL,ioos:station:DISL:KATA:1,2019-02-09T22:30:00Z,30.2583,-88.2131,0.0,12.76,11111222 
DISL,ioos:station:DISL:KATA:1,2019-02-09T23:30:00Z,30.2583,-88.2131,0.0,12.9,11111222 
DISL,ioos:station:DISL:KATA:1,2019-02-10T00:30:00Z,30.2583,-88.2131,0.0,12.93,11111222 
DISL,ioos:station:DISL:KATA:1,2019-02-10T01:30:00Z,30.2583,-88.2131,0.0,12.96,11111222 
DISL,ioos:station:DISL:KATA:1,2019-02-10T02:30:00Z,30.2583,-88.2131,0.0,13.29,11111222 
DISL,ioos:station:DISL:KATA:1,2019-02-10T03:30:00Z,30.2583,-88.2131,0.0,13.49,11111222 
DISL,ioos:station:DISL:KATA:1,2019-02-10T04:30:00Z,30.2583,-88.2131,0.0,13.96,11111222 
DISL,ioos:station:DISL:KATA:1,2019-02-10T05:30:00Z,30.2583,-88.2131,0.0,14.44,11111222 
DISL,ioos:station:DISL:KATA:1,2019-02-10T06:30:00Z,30.2583,-88.2131,0.0,14.69,11111222 
DISL,ioos:station:DISL:KATA:1,2019-02-10T07:30:00Z,30.2583,-88.2131,0.0,15.02,11111222 
DISL,ioos:station:DISL:KATA:1,2019-02-10T08:30:00Z,30.2583,-88.2131,0.0,15.15,11111222 
DISL,ioos:station:DISL:KATA:1,2019-02-10T09:30:00Z,30.2583,-88.2131,0.0,15.27,11111222 
DISL,ioos:station:DISL:KATA:1,2019-02-10T10:30:00Z,30.2583,-88.2131,0.0,15.31,11111222 
DISL,ioos:station:DISL:KATA:1,2019-02-10T11:30:00Z,30.2583,-88.2131,0.0,15.47,11111222 
DISL,ioos:station:DISL:KATA:1,2019-02-10T12:30:00Z,30.2583,-88.2131,0.0,15.52,11111222 
DISL,ioos:station:DISL:KATA:1,2019-02-10T13:30:00Z,30.2583,-88.2131,0.0,15.57,11111222 
DISL,ioos:station:DISL:KATA:1,2019-02-10T14:30:00Z,30.2583,-88.2131,0.0,15.58,11111222 
DISL,ioos:station:DISL:KATA:1,2019-02-10T15:30:00Z,30.2583,-88.2131,0.0,15.61,11111222 
DISL,ioos:station:DISL:KATA:1,2019-02-10T16:30:00Z,30.2583,-88.2131,0.0,15.59,11111222 
DISL,ioos:station:DISL:KATA:1,2019-02-10T17:30:00Z,30.2583,-88.2131,0.0,15.56,11111222 
DISL,ioos:station:DISL:KATA:1,2019-02-10T18:30:00Z,30.2583,-88.2131,0.0,15.37,11111222 
DISL,ioos:station:DISL:KATA:1,2019-02-10T19:30:00Z,30.2583,-88.2131,0.0,15.23,11111222 
DISL,ioos:station:DISL:KATA:1,2019-02-10T20:30:00Z,30.2583,-88.2131,0.0,15.2,11111222 
DISL,ioos:station:DISL:KATA:1,2019-02-10T21:30:00Z,30.2583,-88.2131,0.0,15.17,11111222 
DISL,ioos:station:DISL:KATA:1,2019-02-10T22:30:00Z,30.2583,-88.2131,0.0,15.18,11111222 
DISL,ioos:station:DISL:KATA:1,2019-02-10T23:30:00Z,30.2583,-88.2131,0.0,15.17,11111222 
DISL,ioos:station:DISL:KATA:1,2019-02-11T00:30:00Z,30.2583,-88.2131,0.0,15.18,11111222 
DISL,ioos:station:DISL:KATA:1,2019-02-11T01:30:00Z,30.2583,-88.2131,0.0,15.18,11111222 
DISL,ioos:station:DISL:KATA:1,2019-02-11T02:30:00Z,30.2583,-88.2131,0.0,15.18,11111222 
DISL,ioos:station:DISL:KATA:1,2019-02-11T03:30:00Z,30.2583,-88.2131,0.0,15.2,11111222 
DISL,ioos:station:DISL:KATA:1,2019-02-11T04:30:00Z,30.2583,-88.2131,0.0,15.21,11111222 
DISL,ioos:station:DISL:KATA:1,2019-02-11T06:00:00Z,30.2583,-88.2131,0.0,15.24,11111222 
DISL,ioos:station:DISL:KATA:1,2019-02-11T06:30:00Z,30.2583,-88.2131,0.0,15.25,11111222 
DISL,ioos:station:DISL:KATA:1,2019-02-11T07:30:00Z,30.2583,-88.2131,0.0,15.25,11111222 
DISL,ioos:station:DISL:KATA:1,2019-02-11T08:30:00Z,30.2583,-88.2131,0.0,15.25,11111222 
DISL,ioos:station:DISL:KATA:1,2019-02-11T09:30:00Z,30.2583,-88.2131,0.0,15.25,11111222 
DISL,ioos:station:DISL:KATA:1,2019-02-11T10:30:00Z,30.2583,-88.2131,0.0,15.24,11111222 
DISL,ioos:station:DISL:KATA:1,2019-02-11T11:30:00Z,30.2583,-88.2131,0.0,15.26,11111222 
DISL,ioos:station:DISL:KATA:1,2019-02-11T12:30:00Z,30.2583,-88.2131,0.0,15.29,11111222 
DISL,ioos:station:DISL:KATA:1,2019-02-11T13:30:00Z,30.2583,-88.2131,0.0,15.32,11111222 
DISL,ioos:station:DISL:KATA:1,2019-02-11T14:30:00Z,30.2583,-88.2131,0.0,15.33,11111222 
DISL,ioos:station:DISL:KATA:1,2019-02-11T15:30:00Z,30.2583,-88.2131,0.0,15.36,11111222 
DISL,ioos:station:DISL:KATA:1,2019-02-11T16:30:00Z,30.2583,-88.2131,0.0,15.37,11111222 
DISL,ioos:station:DISL:KATA:1,2019-02-11T17:30:00Z,30.2583,-88.2131,0.0,15.4,11111222 
DISL,ioos:station:DISL:KATA:1,2019-02-11T18:30:00Z,30.2583,-88.2131,0.0,15.46,11111222 
DISL,ioos:station:DISL:KATA:1,2019-02-11T19:30:00Z,30.2583,-88.2131,0.0,15.57,11111222 
DISL,ioos:station:DISL:KATA:1,2019-02-11T20:30:00Z,30.2583,-88.2131,0.0,15.6,11111222 
DISL,ioos:station:DISL:KATA:1,2019-02-11T21:30:00Z,30.2583,-88.2131,0.0,15.62,11111222 
DISL,ioos:station:DISL:KATA:1,2019-02-11T22:30:00Z,30.2583,-88.2131,0.0,15.63,11111222 
DISL,ioos:station:DISL:KATA:1,2019-02-11T23:30:00Z,30.2583,-88.2131,0.0,15.62,11111222 
DISL,ioos:station:DISL:KATA:1,2019-02-12T00:30:00Z,30.2583,-88.2131,0.0,15.6,11111222 
DISL,ioos:station:DISL:KATA:1,2019-02-12T01:30:00Z,30.2583,-88.2131,0.0,15.58,11111222 
DISL,ioos:station:DISL:KATA:1,2019-02-12T02:30:00Z,30.2583,-88.2131,0.0,15.58,11111222 
DISL,ioos:station:DISL:KATA:1,2019-02-12T03:30:00Z,30.2583,-88.2131,0.0,15.56,11111222 
DISL,ioos:station:DISL:KATA:1,2019-02-12T04:30:00Z,30.2583,-88.2131,0.0,15.56,11111222 
DISL,ioos:station:DISL:KATA:1,2019-02-12T05:30:00Z,30.2583,-88.2131,0.0,15.57,11111222 
DISL,ioos:station:DISL:KATA:1,2019-02-12T06:30:00Z,30.2583,-88.2131,0.0,15.59,11111222 
DISL,ioos:station:DISL:KATA:1,2019-02-12T07:30:00Z,30.2583,-88.2131,0.0,15.6,11111222 
DISL,ioos:station:DISL:KATA:1,2019-02-12T08:30:00Z,30.2583,-88.2131,0.0,15.61,11111222 